QPF
0.00 0.00 0.00 0.00 0.00 0.00 0.00 0.00 0.00 0.00 0.00 0.00 0.00 0.00 0.00 0.00 0.01 0.03 0.05 0.05 0.05 0.05 0.05 0.06 0.08 0.09 0.10 0.08 0.12 0.15 0.13 0.12 0.10 0.09 0.07 0.05 0.04 0.03 0.03 0.04 0.04 0.04 0.04 0.05
0.00 0.00 0.00 0.00 0.00 0.00 0.00 0.00 0.00 0.00 0.00 0.00 0.00 0.00 0.00 0.01 0.02 0.03 0.05 0.06 0.07 0.08 0.09 0.08 0.08 0.10 0.08 0.06 0.06 0.09 0.09 0.09 0.07 0.08 0.08 0.06 0.05 0.04 0.04 0.04 0.04 0.04 0.04 0.04
0.00 0.00 0.00 0.00 0.00 0.00 0.00 0.00 0.00 0.00 0.00 0.00 0.00 0.00 0.00 0.01 0.03 0.04 0.05 0.06 0.09 0.11 0.12 0.10 0.08 0.08 0.08 0.07 0.05 0.05 0.07 0.10 0.10 0.09 0.08 0.07 0.05 0.04 0.03 0.03 0.02 0.02 0.02 0.02
0.00 0.00 0.00 0.00 0.00 0.00 0.00 0.00 0.00 0.00 0.00 0.00 0.00 0.00 0.00 0.01 0.02 0.03 0.05 0.06 0.09 0.09 0.08 0.07 0.07 0.07 0.06 0.06 0.06 0.05 0.04 0.05 0.10 0.11 0.09 0.08 0.04 0.03 0.03 0.03 0.02 0.02 0.02 0.02
0.00 0.00 0.00 0.00 0.00 0.00 0.00 0.00 0.00 0.00 0.00 0.00 0.00 0.00 0.00 0.01 0.01 0.02 0.03 0.05 0.07 0.08 0.08 0.12 0.10 0.09 0.07 0.05 0.04 0.05 0.06 0.06 0.06 0.07 0.08 0.08 0.06 0.05 0.04 0.04 0.04 0.03 0.03 0.03
0.00 0.00 0.00 0.00 0.00 0.00 0.00 0.00 0.00 0.00 0.00 0.00 0.00 0.00 0.01 0.01 0.01 0.02 0.02 0.03 0.06 0.13 0.16 0.15 0.13 0.14 0.11 0.07 0.05 0.04 0.05 0.07 0.07 0.07 0.06 0.06 0.05 0.05 0.05 0.04 0.05 0.04 0.04 0.05
0.00 0.00 0.00 0.00 0.00 0.00 0.01 0.00 0.01 0.02 0.02 0.01 0.01 0.01 0.01 0.01 0.02 0.04 0.04 0.03 0.08 0.18 0.21 0.17 0.14 0.13 0.10 0.07 0.05 0.03 0.03 0.04 0.04 0.04 0.05 0.05 0.06 0.06 0.06 0.06 0.07 0.07 0.06 0.06
0.00 0.00 0.00 0.00 0.01 0.01 0.01 0.01 0.03 0.04 0.04 0.03 0.02 0.01 0.02 0.03 0.05 0.06 0.07 0.05 0.07 0.12 0.18 0.17 0.15 0.12 0.10 0.07 0.04 0.04 0.05 0.04 0.05 0.06 0.07 0.08 0.09 0.08 0.07 0.07 0.06 0.06 0.06 0.05
0.00 0.00 0.01 0.01 0.01 0.02 0.02 0.03 0.04 0.04 0.04 0.05 0.05 0.04 0.04 0.04 0.06 0.06 0.06 0.05 0.07 0.10 0.14 0.12 0.09 0.08 0.08 0.07 0.06 0.05 0.04 0.05 0.07 0.08 0.09 0.12 0.12 0.10 0.07 0.05 0.04 0.05 0.06 0.06
0.01 0.01 0.01 0.02 0.02 0.02 0.04 0.05 0.04 0.04 0.05 0.06 0.06 0.06 0.05 0.06 0.06 0.07 0.07 0.06 0.06 0.07 0.09 0.08 0.06 0.06 0.05 0.05 0.03 0.03 0.04 0.05 0.05 0.05 0.07 0.11 0.14 0.12 0.09 0.07 0.06 0.07 0.07 0.08
0.02 0.02 0.02 0.01 0.01 0.02 0.04 0.05 0.05 0.05 0.05 0.05 0.05 0.06 0.06 0.07 0.08 0.08 0.08 0.06 0.06 0.05 0.05 0.05 0.04 0.04 0.03 0.03 0.02 0.03 0.02 0.02 0.03 0.04 0.04 0.05 0.08 0.10 0.09 0.09 0.10 0.10 0.10 0.10
0.02 0.02 0.02 0.02 0.02 0.02 0.03 0.05 0.05 0.05 0.06 0.06 0.06 0.06 0.05 0.06 0.07 0.07 0.06 0.06 0.05 0.04 0.04 0.03 0.03 0.02 0.01 0.01 0.01 0.01 0.01 0.01 0.01 0.02 0.04 0.04 0.05 0.07 0.09 0.12 0.14 0.12 0.11 0.10
0.03 0.04 0.04 0.04 0.04 0.04 0.06 0.06 0.06 0.06 0.08 0.07 0.07 0.07 0.06 0.06 0.06 0.06 0.06 0.05 0.04 0.04 0.04 0.03 0.02 0.01 0.01 0.00 0.00 0.01 0.02 0.03 0.02 0.02 0.02 0.02 0.02 0.02 0.04 0.07 0.08 0.08 0.07 0.07
0.04 0.04 0.04 0.05 0.06 0.05 0.07 0.06 0.06 0.08 0.10 0.09 0.08 0.08 0.08 0.08 0.06 0.05 0.05 0.04 0.03 0.04 0.03 0.02 0.02 0.02 0.01 0.01 0.01 0.01 0.02 0.04 0.04 0.02 0.02 0.02 0.02 0.02 0.02 0.04 0.04 0.04 0.04 0.04
0.05 0.04 0.03 0.04 0.05 0.06 0.07 0.07 0.08 0.08 0.07 0.07 0.07 0.08 0.09 0.10 0.08 0.04 0.04 0.03 0.03 0.02 0.02 0.02 0.02 0.02 0.02 0.01 0.01 0.01 0.02 0.03 0.04 0.04 0.03 0.03 0.03 0.04 0.04 0.04 0.04 0.04 0.03 0.02
0.06 0.05 0.04 0.03 0.04 0.05 0.07 0.09 0.08 0.06 0.05 0.05 0.06 0.06 0.06 0.06 0.06 0.04 0.03 0.02 0.02 0.02 0.01 0.01 0.01 0.00 0.00 0.01 0.01 0.01 0.02 0.03 0.03 0.04 0.05 0.04 0.04 0.04 0.04 0.04 0.03 0.02 0.02 0.01
0.06 0.06 0.04 0.04 0.04 0.04 0.06 0.08 0.07 0.06 0.05 0.04 0.04 0.04 0.04 0.04 0.04 0.02 0.01 0.01 0.01 0.01 0.00 0.00 0.00 0.00 0.00 0.00 0.01 0.01 0.01 0.02 0.02 0.03 0.04 0.05 0.04 0.04 0.03 0.03 0.02 0.01 0.01 0.01
0.07 0.07 0.06 0.06 0.06 0.06 0.05 0.06 0.06 0.07 0.06 0.05 0.04 0.03 0.03 0.03 0.02 0.02 0.01 0.00 0.00 0.00 0.00 0.00 0.00 0.00 0.00 0.00 0.00 0.01 0.01 0.01 0.01 0.01 0.02 0.02 0.03 0.02 0.02 0.02 0.02 0.02 0.01 0.01
0.07 0.07 0.09 0.11 0.10 0.08 0.07 0.07 0.06 0.05 0.05 0.04 0.03 0.03 0.02 0.01 0.01 0.01 0.01 0.01 0.01 0.01 0.00 0.00 0.01 0.00 0.00 0.00 0.00 0.00 0.01 0.01 0.00 0.00 0.01 0.01 0.02 0.02 0.02 0.03 0.04 0.03 0.03 0.02
0.08 0.08 0.09 0.11 0.09 0.09 0.11 0.11 0.07 0.05 0.04 0.04 0.03 0.03 0.03 0.02 0.02 0.02 0.02 0.01 0.01 0.01 0.01 0.01 0.00 0.00 0.00 0.00 0.00 0.00 0.00 0.01 0.00 0.01 0.01 0.01 0.01 0.01 0.02 0.03 0.04 0.04 0.05 0.05
0.07 0.07 0.07 0.07 0.07 0.09 0.11 0.10 0.06 0.04 0.03 0.03 0.03 0.03 0.03 0.03 0.03 0.03 0.02 0.01 0.01 0.01 0.00 0.00 0.00 0.00 0.00 0.00 0.00 0.00 0.00 0.00 0.00 0.00 0.01 0.01 0.01 0.01 0.02 0.03 0.04 0.05 0.05 0.06
0.07 0.07 0.06 0.06 0.08 0.10 0.10 0.08 0.05 0.04 0.03 0.02 0.02 0.02 0.02 0.02 0.01 0.01 0.00 0.00 0.00 0.00 0.00 0.00 0.00 0.00 0.00 0.00 0.00 0.00 0.00 0.00 0.00 0.00 0.00 0.00 0.00 0.01 0.01 0.01 0.02 0.03 0.04 0.04
0.05 0.05 0.04 0.05 0.07 0.08 0.06 0.05 0.04 0.03 0.03 0.02 0.02 0.02 0.01 0.01 0.00 0.00 0.00 0.00 0.00 0.00 0.00 0.00 0.00 0.00 0.00 0.00 0.00 0.00 0.00 0.00 0.00 0.00 0.00 0.00 0.01 0.01 0.01 0.01 0.01 0.02 0.03 0.03
0.04 0.04 0.04 0.03 0.04 0.05 0.04 0.02 0.02 0.01 0.01 0.01 0.01 0.01 0.01 0.01 0.00 0.00 0.00 0.00 0.00 0.00 0.00 0.00 0.00 0.00 0.00 0.00 0.00 0.00 0.00 0.00 0.00 0.00 0.00 0.00 0.01 0.01 0.01 0.01 0.01 0.01 0.02 0.02
0.04 0.04 0.03 0.03 0.03 0.04 0.02 0.01 0.01 0.01 0.01 0.01 0.01 0.01 0.01 0.01 0.01 0.01 0.01 0.01 0.00 0.00 0.00 0.00 0.00 0.00 0.00 0.00 0.00 0.00 0.00 0.00 0.00 0.00 0.00 0.00 0.00 0.00 0.00 0.00 0.01 0.01 0.01 0.01
0.05 0.03 0.02 0.02 0.02 0.03 0.02 0.01 0.01 0.01 0.00 0.01 0.01 0.01 0.01 0.01 0.01 0.01 0.01 0.01 0.00 0.00 0.00 0.00 0.00 0.00 0.00 0.00 0.00 0.00 0.00 0.00 0.00 0.00 0.00 0.00 0.00 0.00 0.01 0.01 0.01 0.01 0.01 0.01
0.03 0.02 0.02 0.01 0.01 0.01 0.01 0.01 0.01 0.01 0.01 0.01 0.01 0.01 0.01 0.01 0.01 0.00 0.00 0.00 0.00 0.00 0.00 0.00 0.00 0.00 0.00 0.00 0.00 0.00 0.00 0.00 0.00 0.00 0.00 0.00 0.00 0.00 0.00 0.00 0.01 0.00 0.00 0.00
MSLP
1008.98 1009.33 1009.79 1010.32 1010.86 1011.33 1011.66 1011.78 1011.64 1011.25 1010.62 1009.82 1008.93 1008.06 1007.30 1006.72 1006.36 1006.25 1006.36 1006.66 1007.09 1007.59 1008.10 1008.60 1009.05 1009.46 1009.82 1010.17 1010.51 1010.85 1011.21 1011.58 1011.95 1012.33 1012.70 1013.05 1013.39 1013.71 1014.00 1014.27 1014.51 1014.71 1014.85 1014.92
1008.94 1009.19 1009.50 1009.85 1010.18 1010.45 1010.60 1010.59 1010.40 1010.02 1009.47 1008.81 1008.11 1007.43 1006.85 1006.42 1006.19 1006.14 1006.28 1006.58 1006.99 1007.46 1007.96 1008.46 1008.94 1009.38 1009.80 1010.19 1010.57 1010.95 1011.32 1011.69 1012.06 1012.42 1012.77 1013.11 1013.44 1013.76 1014.05 1014.32 1014.56 1014.76 1014.91 1014.98
1009.14 1009.29 1009.46 1009.63 1009.76 1009.84 1009.82 1009.67 1009.40 1009.00 1008.49 1007.92 1007.34 1006.80 1006.35 1006.03 1005.87 1005.87 1006.03 1006.32 1006.72 1007.19 1007.70 1008.23 1008.75 1009.26 1009.74 1010.20 1010.64 1011.06 1011.46 1011.84 1012.20 1012.54 1012.88 1013.20 1013.51 1013.81 1014.09 1014.36 1014.60 1014.79 1014.93 1014.99
1009.55 1009.60 1009.64 1009.65 1009.61 1009.51 1009.33 1009.05 1008.69 1008.24 1007.73 1007.20 1006.68 1006.21 1005.83 1005.58 1005.46 1005.48 1005.65 1005.95 1006.35 1006.84 1007.38 1007.96 1008.55 1009.13 1009.69 1010.22 1010.72 1011.18 1011.60 1011.99 1012.34 1012.66 1012.97 1013.27 1013.55 1013.83 1014.10 1014.36 1014.58 1014.76 1014.88 1014.94
1010.07 1010.03 1009.95 1009.83 1009.65 1009.40 1009.08 1008.69 1008.23 1007.73 1007.20 1006.66 1006.16 1005.72 1005.38 1005.15 1005.05 1005.09 1005.27 1005.58 1006.01 1006.53 1007.12 1007.76 1008.42 1009.08 1009.71 1010.31 1010.85 1011.34 1011.77 1012.15 1012.48 1012.78 1013.06 1013.32 1013.58 1013.84 1014.09 1014.32 1014.52 1014.68 1014.78 1014.82
1010.56 1010.44 1010.27 1010.04 1009.75 1009.39 1008.97 1008.50 1007.98 1007.43 1006.87 1006.32 1005.82 1005.40 1005.06 1004.85 1004.76 1004.82 1005.02 1005.36 1005.82 1006.39 1007.04 1007.75 1008.47 1009.19 1009.88 1010.52 1011.08 1011.58 1012.00 1012.35 1012.65 1012.91 1013.16 1013.39 1013.62 1013.85 1014.08 1014.29 1014.47 1014.60 1014.68 1014.70
1010.92 1010.72 1010.47 1010.16 1009.81 1009.39 1008.92 1008.41 1007.86 1007.29 1006.73 1006.19 1005.70 1005.29 1004.97 1004.78 1004.72 1004.80 1005.04 1005.42 1005.93 1006.55 1007.25 1008.01 1008.78 1009.54 1010.25 1010.89 1011.45 1011.92 1012.30 1012.62 1012.87 1013.10 1013.30 1013.50 1013.71 1013.92 1014.13 1014.32 1014.48 1014.59 1014.64 1014.63
1011.06 1010.78 1010.48 1010.14 1009.76 1009.33 1008.87 1008.37 1007.84 1007.30 1006.77 1006.27 1005.82 1005.44 1005.17 1005.02 1005.00 1005.13 1005.41 1005.84 1006.39 1007.06 1007.80 1008.59 1009.37 1010.13 1010.83 1011.44 1011.96 1012.38 1012.71 1012.97 1013.17 1013.35 1013.53 1013.70 1013.89 1014.09 1014.28 1014.46 1014.60 1014.69 1014.72 1014.69
1010.98 1010.65 1010.31 1009.97 1009.60 1009.22 1008.81 1008.37 1007.91 1007.45 1006.99 1006.57 1006.19 1005.88 1005.67 1005.59 1005.63 1005.82 1006.16 1006.63 1007.23 1007.93 1008.68 1009.46 1010.23 1010.96 1011.60 1012.15 1012.60 1012.95 1013.21 1013.41 1013.57 1013.71 1013.86 1014.02 1014.20 1014.40 1014.59 1014.76 1014.89 1014.97 1014.98 1014.92
1010.75 1010.38 1010.04 1009.71 1009.40 1009.09 1008.78 1008.44 1008.10 1007.75 1007.40 1007.08 1006.80 1006.59 1006.47 1006.46 1006.58 1006.84 1007.23 1007.75 1008.37 1009.07 1009.81 1010.56 1011.28 1011.93 1012.50 1012.96 1013.32 1013.59 1013.78 1013.93 1014.04 1014.16 1014.30 1014.46 1014.65 1014.86 1015.06 1015.24 1015.37 1015.44 1015.44 1015.36
1010.46 1010.08 1009.76 1009.49 1009.26 1009.05 1008.85 1008.64 1008.43 1008.20 1007.98 1007.78 1007.62 1007.51 1007.50 1007.58 1007.77 1008.09 1008.52 1009.07 1009.69 1010.38 1011.08 1011.76 1012.40 1012.96 1013.43 1013.80 1014.07 1014.26 1014.39 1014.49 1014.59 1014.70 1014.84 1015.02 1015.24 1015.46 1015.68 1015.87 1016.01 1016.09 1016.08 1015.99
1010.22 1009.87 1009.60 1009.40 1009.27 1009.17 1009.08 1009.00 1008.91 1008.82 1008.72 1008.64 1008.58 1008.58 1008.65 1008.81 1009.07 1009.44 1009.90 1010.45 1011.05 1011.69 1012.33 1012.93 1013.48 1013.94 1014.31 1014.58 1014.77 1014.91 1015.00 1015.08 1015.18 1015.30 1015.47 1015.69 1015.93 1016.19 1016.44 1016.65 1016.80 1016.88 1016.87 1016.79
1010.10 1009.80 1009.61 1009.51 1009.47 1009.48 1009.51 1009.54 1009.56 1009.57 1009.57 1009.58 1009.62 1009.70 1009.84 1010.06 1010.37 1010.76 1011.23 1011.76 1012.33 1012.91 1013.47 1013.99 1014.43 1014.80 1015.08 1015.28 1015.41 1015.51 1015.59 1015.67 1015.79 1015.96 1016.17 1016.42 1016.71 1017.00 1017.28 1017.51 1017.68 1017.77 1017.77 1017.70
1010.10 1009.90 1009.80 1009.80 1009.87 1009.97 1010.09 1010.21 1010.32 1010.40 1010.48 1010.56 1010.65 1010.79 1010.98 1011.24 1011.57 1011.97 1012.43 1012.93 1013.46 1013.97 1014.45 1014.88 1015.24 1015.52 1015.73 1015.88 1015.98 1016.07 1016.16 1016.28 1016.44 1016.65 1016.91 1017.22 1017.55 1017.87 1018.17 1018.42 1018.60 1018.70 1018.72 1018.66
1010.18 1010.09 1010.12 1010.23 1010.39 1010.59 1010.78 1010.97 1011.13 1011.26 1011.38 1011.50 1011.64 1011.81 1012.02 1012.30 1012.64 1013.04 1013.48 1013.94 1014.41 1014.86 1015.27 1015.62 1015.91 1016.13 1016.30 1016.42 1016.52 1016.62 1016.74 1016.90 1017.12 1017.39 1017.71 1018.06 1018.42 1018.78 1019.09 1019.36 1019.54 1019.65 1019.68 1019.64
1010.26 1010.32 1010.47 1010.70 1010.96 1011.24 1011.50 1011.73 1011.93 1012.10 1012.24 1012.39 1012.54 1012.73 1012.97 1013.25 1013.59 1013.98 1014.39 1014.82 1015.24 1015.64 1015.98 1016.28 1016.51 1016.69 1016.83 1016.95 1017.06 1017.20 1017.36 1017.58 1017.85 1018.18 1018.55 1018.94 1019.33 1019.70 1020.03 1020.29 1020.48 1020.59 1020.63 1020.61
1010.28 1010.49 1010.79 1011.14 1011.50 1011.85 1012.17 1012.45 1012.68 1012.87 1013.04 1013.20 1013.38 1013.58 1013.83 1014.13 1014.47 1014.85 1015.24 1015.64 1016.02 1016.37 1016.67 1016.92 1017.12 1017.28 1017.41 1017.53 1017.67 1017.84 1018.06 1018.33 1018.65 1019.02 1019.43 1019.84 1020.25 1020.63 1020.95 1021.21 1021.39 1021.51 1021.55 1021.54
1010.22 1010.59 1011.02 1011.48 1011.94 1012.37 1012.75 1013.07 1013.34 1013.57 1013.77 1013.96 1014.17 1014.40 1014.67 1014.98 1015.33 1015.70 1016.09 1016.46 1016.82 1017.13 1017.39 1017.61 1017.79 1017.93 1018.07 1018.20 1018.37 1018.57 1018.83 1019.14 1019.50 1019.91 1020.33 1020.76 1021.17 1021.54 1021.85 1022.10 1022.27 1022.37 1022.42 1022.42
1010.12 1010.62 1011.18 1011.75 1012.30 1012.80 1013.25 1013.62 1013.94 1014.21 1014.46 1014.69 1014.93 1015.21 1015.51 1015.85 1016.21 1016.59 1016.97 1017.33 1017.66 1017.95 1018.19 1018.39 1018.55 1018.69 1018.82 1018.97 1019.16 1019.39 1019.67 1020.01 1020.39 1020.81 1021.24 1021.66 1022.06 1022.41 1022.70 1022.93 1023.09 1023.18 1023.23 1023.23
1010.05 1010.67 1011.33 1011.99 1012.61 1013.18 1013.69 1014.13 1014.50 1014.83 1015.13 1015.42 1015.71 1016.03 1016.37 1016.74 1017.12 1017.51 1017.89 1018.24 1018.55 1018.82 1019.05 1019.23 1019.38 1019.51 1019.65 1019.81 1020.01 1020.25 1020.55 1020.90 1021.28 1021.69 1022.11 1022.52 1022.89 1023.21 1023.48 1023.68 1023.82 1023.91 1023.95 1023.96
1010.11 1010.81 1011.54 1012.26 1012.95 1013.58 1014.14 1014.63 1015.06 1015.45 1015.80 1016.15 1016.50 1016.86 1017.24 1017.63 1018.03 1018.43 1018.81 1019.15 1019.45 1019.71 1019.92 1020.09 1020.23 1020.37 1020.51 1020.68 1020.88 1021.13 1021.42 1021.76 1022.13 1022.52 1022.92 1023.29 1023.63 1023.92 1024.16 1024.34 1024.46 1024.54 1024.57 1024.58
1010.37 1011.12 1011.89 1012.65 1013.37 1014.03 1014.63 1015.16 1015.64 1016.08 1016.48 1016.88 1017.27 1017.67 1018.08 1018.49 1018.90 1019.30 1019.67 1020.00 1020.29 1020.54 1020.74 1020.91 1021.06 1021.20 1021.35 1021.52 1021.72 1021.97 1022.25 1022.57 1022.92 1023.28 1023.63 1023.96 1024.26 1024.52 1024.73 1024.88 1024.99 1025.06 1025.09 1025.09
1010.87 1011.63 1012.41 1013.17 1013.89 1014.57 1015.18 1015.73 1016.24 1016.71 1017.15 1017.57 1017.99 1018.41 1018.84 1019.26 1019.67 1020.05 1020.41 1020.74 1021.02 1021.26 1021.47 1021.64 1021.80 1021.95 1022.11 1022.29 1022.50 1022.74 1023.01 1023.31 1023.62 1023.93 1024.24 1024.53 1024.78 1025.00 1025.18 1025.31 1025.41 1025.47 1025.50 1025.51
1011.57 1012.31 1013.07 1013.80 1014.51 1015.16 1015.77 1016.32 1016.83 1017.31 1017.76 1018.20 1018.63 1019.06 1019.48 1019.89 1020.29 1020.67 1021.02 1021.33 1021.61 1021.86 1022.07 1022.26 1022.44 1022.62 1022.80 1023.00 1023.21 1023.45 1023.70 1023.97 1024.24 1024.50 1024.76 1024.99 1025.20 1025.38 1025.52 1025.63 1025.72 1025.78 1025.81 1025.83
1012.39 1013.09 1013.80 1014.50 1015.16 1015.78 1016.36 1016.89 1017.39 1017.86 1018.31 1018.75 1019.17 1019.59 1020.00 1020.40 1020.79 1021.15 1021.49 1021.80 1022.08 1022.34 1022.57 1022.79 1023.00 1023.21 1023.42 1023.63 1023.86 1024.09 1024.32 1024.56 1024.79 1025.00 1025.20 1025.38 1025.53 1025.67 1025.78 1025.87 1025.94 1026.00 1026.04 1026.07
1013.22 1013.88 1014.54 1015.17 1015.78 1016.36 1016.90 1017.40 1017.88 1018.34 1018.78 1019.20 1019.62 1020.02 1020.42 1020.80 1021.17 1021.53 1021.86 1022.18 1022.47 1022.75 1023.01 1023.27 1023.51 1023.76 1024.00 1024.23 1024.46 1024.69 1024.91 1025.11 1025.29 1025.45 1025.59 1025.71 1025.81 1025.89 1025.97 1026.04 1026.10 1026.16 1026.21 1026.25
1013.98 1014.59 1015.19 1015.76 1016.32 1016.85 1017.36 1017.84 1018.30 1018.74 1019.17 1019.59 1020.00 1020.39 1020.78 1021.16 1021.52 1021.87 1022.21 1022.54 1022.85 1023.15 1023.45 1023.74 1024.02 1024.29 1024.56 1024.81 1025.05 1025.26 1025.45 1025.61 1025.75 1025.85 1025.93 1025.99 1026.03 1026.07 1026.11 1026.15 1026.20 1026.26 1026.31 1026.36
Thickness
5707 5718 5724 5727 5727 5724 5725 5720 5716 5726 5733 5750 5759 5764 5766 5768 5769 5771 5771 5772 5771 5771 5770 5769 5767 5766 5765 5762 5760 5758 5755 5751 5749 5748 5746 5744 5742 5741 5740 5738 5737 5736 5735 5734
5703 5714 5720 5720 5724 5725 5728 5727 5729 5734 5738 5755 5760 5762 5762 5763 5765 5765 5766 5767 5767 5766 5765 5762 5761 5760 5759 5758 5756 5754 5751 5747 5746 5745 5742 5740 5739 5737 5735 5734 5732 5732 5731 5729
5685 5702 5710 5701 5716 5722 5726 5730 5732 5730 5743 5752 5754 5757 5759 5761 5762 5762 5763 5763 5763 5761 5760 5757 5756 5755 5753 5752 5750 5747 5745 5743 5742 5741 5739 5736 5735 5732 5730 5729 5727 5726 5725 5724
5675 5689 5680 5701 5722 5726 5725 5729 5734 5740 5745 5749 5752 5755 5757 5759 5759 5758 5759 5758 5757 5756 5754 5752 5750 5749 5748 5746 5743 5741 5740 5739 5737 5736 5734 5731 5729 5727 5725 5724 5722 5721 5720 5718
5662 5669 5681 5702 5715 5718 5718 5721 5732 5736 5740 5743 5746 5747 5747 5753 5755 5755 5755 5754 5752 5750 5748 5746 5744 5742 5740 5738 5736 5735 5734 5734 5733 5731 5729 5725 5722 5721 5719 5718 5716 5715 5713 5712
5660 5665 5668 5693 5714 5722 5718 5712 5729 5733 5735 5738 5741 5733 5738 5746 5748 5748 5748 5747 5745 5744 5742 5740 5738 5735 5733 5731 5730 5728 5728 5728 5727 5725 5722 5720 5717 5715 5714 5712 5710 5708 5707 5706
5658 5662 5673 5699 5710 5715 5699 5709 5727 5730 5732 5734 5735 5737 5740 5741 5740 5740 5739 5739 5738 5736 5734 5732 5731 5729 5726 5724 5722 5721 5722 5721 5720 5718 5715 5713 5711 5709 5707 5705 5703 5701 5699 5697
5652 5656 5668 5698 5702 5701 5705 5717 5722 5725 5727 5728 5731 5733 5733 5733 5732 5731 5730 5729 5729 5727 5723 5724 5724 5721 5718 5716 5715 5715 5715 5714 5711 5709 5708 5706 5703 5700 5699 5697 5695 5692 5691 5689
5658 5665 5680 5689 5695 5701 5706 5710 5716 5719 5722 5724 5724 5724 5725 5724 5723 5722 5721 5720 5719 5718 5714 5713 5713 5713 5710 5708 5708 5707 5706 5704 5702 5701 5698 5697 5695 5692 5690 5688 5686 5684 5682 5680
5658 5669 5678 5685 5691 5696 5702 5706 5711 5714 5717 5718 5717 5717 5716 5715 5714 5712 5711 5710 5709 5708 5705 5702 5702 5703 5702 5701 5700 5699 5696 5694 5693 5691 5689 5686 5684 5683 5680 5678 5676 5675 5672 5668
5654 5664 5673 5680 5684 5690 5696 5702 5705 5707 5710 5711 5711 5709 5709 5707 5706 5704 5701 5699 5699 5698 5695 5692 5693 5692 5692 5692 5691 5689 5687 5685 5683 5681 5679 5675 5672 5669 5668 5665 5664 5663 5661 5658
5651 5661 5665 5671 5679 5684 5689 5693 5697 5699 5700 5702 5703 5701 5699 5697 5696 5694 5691 5689 5688 5687 5685 5683 5683 5682 5682 5682 5682 5681 5678 5675 5673 5671 5668 5665 5662 5658 5654 5653 5652 5651 5649 5647
5653 5659 5663 5668 5673 5678 5681 5685 5689 5691 5692 5692 5692 5692 5690 5687 5685 5684 5682 5680 5678 5677 5676 5675 5674 5672 5672 5672 5672 5672 5669 5666 5663 5661 5658 5655 5653 5651 5646 5641 5640 5638 5636 5635
5651 5655 5657 5662 5665 5670 5674 5676 5679 5680 5681 5683 5682 5681 5680 5677 5675 5673 5671 5670 5669 5668 5667 5666 5665 5663 5662 5662 5662 5661 5658 5656 5653 5650 5648 5645 5643 5640 5637 5634 5630 5625 5623 5621
5646 5651 5653 5657 5659 5662 5666 5667 5668 5669 5670 5671 5672 5671 5670 5667 5664 5661 5660 5660 5659 5658 5657 5656 5655 5653 5653 5653 5652 5650 5648 5645 5642 5639 5637 5634 5632 5629 5625 5622 5618 5614 5612 5610
5641 5645 5648 5650 5652 5654 5657 5658 5659 5659 5661 5661 5662 5661 5660 5657 5654 5651 5650 5650 5650 5648 5646 5645 5644 5643 5643 5643 5642 5640 5638 5636 5633 5629 5626 5623 5620 5618 5614 5610 5607 5604 5601 5598
5635 5638 5641 5644 5646 5648 5650 5652 5653 5652 5653 5652 5652 5651 5649 5647 5643 5641 5639 5639 5639 5637 5636 5635 5634 5634 5635 5634 5633 5631 5628 5626 5623 5619 5616 5612 5609 5606 5603 5600 5596 5593 5589 5585
5634 5637 5640 5641 5642 5642 5644 5645 5645 5645 5644 5645 5643 5642 5639 5637 5634 5631 5630 5630 5630 5628 5627 5626 5626 5626 5626 5625 5623 5621 5618 5615 5612 5609 5605 5602 5599 5596 5593 5589 5586 5582 5577 5574
5628 5630 5632 5634 5635 5637 5637 5637 5637 5637 5636 5636 5633 5631 5629 5627 5625 5623 5622 5622 5621 5619 5616 5617 5618 5618 5616 5615 5614 5611 5608 5605 5602 5599 5596 5592 5589 5586 5582 5579 5575 5570 5567 5563
5621 5623 5625 5626 5627 5629 5629 5629 5629 5628 5627 5627 5625 5622 5619 5617 5616 5615 5613 5611 5609 5608 5608 5609 5609 5608 5607 5606 5604 5602 5599 5596 5593 5589 5586 5582 5578 5575 5571 5567 5564 5560 5556 5552
5614 5616 5618 5619 5619 5620 5621 5621 5621 5620 5618 5618 5616 5613 5611 5608 5608 5607 5606 5602 5599 5600 5601 5601 5601 5599 5597 5596 5594 5591 5588 5585 5582 5578 5575 5571 5567 5564 5560 5556 5552 5548 5544 5540
5608 5610 5611 5611 5611 5611 5611 5611 5612 5610 5609 5608 5607 5605 5603 5601 5599 5597 5595 5594 5593 5593 5593 5592 5591 5590 5588 5586 5583 5581 5578 5574 5571 5567 5564 5560 5556 5552 5548 5544 5540 5536 5532 5528
5601 5603 5603 5603 5603 5602 5601 5601 5602 5601 5600 5599 5598 5596 5595 5593 5592 5592 5587 5585 5586 5585 5584 5583 5581 5580 5578 5576 5573 5570 5567 5564 5560 5556 5553 5549 5545 5541 5537 5533 5528 5524 5520 5516
5595 5595 5595 5595 5595 5594 5593 5592 5592 5592 5591 5589 5588 5588 5588 5585 5582 5581 5580 5578 5577 5577 5574 5572 5571 5570 5568 5565 5562 5559 5556 5552 5549 5545 5542 5538 5534 5530 5526 5521 5517 5513 5509 5505
5589 5589 5589 5589 5588 5587 5585 5585 5584 5583 5582 5580 5579 5579 5579 5579 5576 5573 5572 5570 5568 5567 5565 5563 5562 5560 5558 5555 5552 5548 5545 5542 5539 5535 5532 5528 5524 5519 5515 5511 5507 5502 5498 5494
5582 5582 5582 5582 5582 5581 5580 5580 5578 5576 5575 5573 5571 5571 5571 5570 5568 5566 5564 5562 5560 5558 5556 5554 5552 5550 5547 5545 5542 5539 5535 5532 5529 5525 5521 5518 5514 5509 5505 5501 5497 5493 5489 5485
5575 5575 5575 5574 5574 5575 5574 5573 5571 5569 5569 5568 5565 5563 5563 5562 5560 5558 5556 5554 5552 5549 5547 5545 5543 5541 5538 5535 5532 5529 5525 5522 5519 5515 5511 5507 5504 5500 5496 5492 5488 5484 5480 5476